CWWU

Ingenika Point  Airport

Long Pond, Canada
Issued Wind Visibility Ceiling Temperature Dew Point Humidity Barometer
Nov-19
20:00 UTC
280°
6 KTS
15 miles Broken
2,200' AGL
C
41° F
C
36° F
81% 29.69" Hg
1005.6 hPa
MVFR
Nov-19
19:00 UTC
280°
10 KTS
15 miles Broken
2,200' AGL
C
41° F
C
36° F
81% 29.69" Hg
1005.4 hPa
MVFR
Nov-19
18:00 UTC
290°
10 KTS
15 miles Broken
1,800' AGL
C
41° F
C
36° F
81% 29.66" Hg
1004.3 hPa
MVFR
Nov-19
17:00 UTC
270°
12 KTS
Gust 17 KTS
15 miles Broken
1,500' AGL
C
41° F
C
36° F
81% 29.65" Hg
1004.2 hPa
MVFR
Nov-19
16:50 UTC
280°
12 KTS
15 miles Broken
1,400' AGL
C
41° F
C
36° F
81% 29.65" Hg
1004.2 hPa
MVFR
Nov-19
16:29 UTC
270°
11 KTS
15 miles Overcast
1,500' AGL
C
41° F
C
36° F
81% 29.64" Hg
1004 hPa
MVFR
Nov-19
16:00 UTC
270°
15 KTS
15 miles Overcast
1,300' AGL
C
39° F
C
36° F
87% 29.64" Hg
1003.8 hPa
MVFR
Nov-19
15:00 UTC
280°
15 KTS
15 miles Overcast
1,200' AGL
C
39° F
C
36° F
87% 29.64" Hg
1003.7 hPa
MVFR
Nov-19
14:00 UTC
280°
17 KTS
15 miles Overcast
1,200' AGL
C
39° F
C
37° F
93% 29.64" Hg
1003.8 hPa
MVFR
Nov-19
13:00 UTC
280°
18 KTS
15 miles Broken
1,200' AGL
C
39° F
C
36° F
87% 29.62" Hg
1003.2 hPa
MVFR
Nov-19
12:15 UTC
270°
12 KTS
Gust 20 KTS
15 miles Broken
1,000' AGL
C
39° F
C
37° F
93% 29.61" Hg
1002.7 hPa
MVFR
Nov-19
12:00 UTC
270°
15 KTS
15 miles Broken
900' AGL
C
39° F
C
37° F
93% 29.6" Hg
1002.6 hPa
IFR
Nov-19
11:00 UTC
270°
13 KTS
15 miles Overcast
1,200' AGL
C
39° F
C
36° F
87% 29.58" Hg
1001.7 hPa
MVFR
Nov-19
10:00 UTC
280°
17 KTS
15 miles Overcast
1,300' AGL
C
39° F
C
36° F
87% 29.56" Hg
1000.9 hPa
MVFR
Nov-19
09:00 UTC
290°
17 KTS
15 miles Overcast
1,500' AGL
C
39° F
C
36° F
87% 29.52" Hg
999.8 hPa
MVFR
Nov-19
08:00 UTC
290°
17 KTS
15 miles Broken
3,500' AGL
C
39° F
C
36° F
87% 29.5" Hg
999.2 hPa
VFR